Time,TemperatureF,DewpointF,PressureIn,WindDirection,WindDirectionDegrees,WindSpeedMPH,WindSpeedGustMPH,Humidity,HourlyPrecipIn,Conditions,Clouds,dailyrainin,SoftwareType,DateUTC
2013-02-21 01:01:00,-999.0,-99.9,-100.00,WNW,303,12.0,15.0,-999,-99.99,,,-99.99,,2013-02-21 07:01:00,
2013-02-21 01:11:00,-999.0,-99.9,30.39,WNW,303,12.0,15.0,-999,-99.99,,,-99.99,,2013-02-21 07:11:00,
2013-02-21 01:32:00,12.0,-99.9,30.40,WNW,295,9.0,14.0,-999,-99.99,,,-99.99,,2013-02-21 07:32:00,
2013-02-21 02:32:00,-999.0,-99.9,-100.00,WNW,286,11.0,14.0,-999,-99.99,,,-99.99,,2013-02-21 08:32:00,
2013-02-21 02:42:00,-999.0,-99.9,30.41,WNW,286,11.0,14.0,-999,-99.99,,,-99.99,,2013-02-21 08:42:00,
2013-02-21 03:02:00,12.0,-99.9,30.41,WNW,296,10.0,14.0,-999,-99.99,,,-99.99,,2013-02-21 09:02:00,
2013-02-21 06:01:00,-999.0,-99.9,-100.00,WNW,295,10.0,13.0,-999,-99.99,,,-99.99,,2013-02-21 12:01:00,
2013-02-21 06:11:00,-999.0,-99.9,30.46,WNW,295,10.0,13.0,-999,-99.99,,,-99.99,,2013-02-21 12:11:00,
2013-02-21 06:32:00,13.0,-99.9,30.46,WNW,284,10.0,13.0,-999,-99.99,,,-99.99,,2013-02-21 12:32:00,
2013-02-21 07:12:00,-999.0,-99.9,-100.00,NW,308,9.0,13.0,-999,-99.99,,,-99.99,,2013-02-21 13:12:00,
2013-02-21 07:22:00,-999.0,-99.9,30.46,NW,308,9.0,13.0,-999,-99.99,,,-99.99,,2013-02-21 13:22:00,
2013-02-21 07:32:00,-999.0,-99.9,-100.00,NW,311,11.0,12.0,-999,-99.99,,,-99.99,,2013-02-21 13:32:00,
2013-02-21 07:42:00,-999.0,-99.9,30.44,NW,311,11.0,12.0,-999,-99.99,,,-99.99,,2013-02-21 13:42:00,
2013-02-21 08:02:00,16.0,-99.9,30.42,NNW,337,12.0,14.0,-999,-99.99,,,-99.99,,2013-02-21 14:02:00,
2013-02-21 09:02:00,-999.0,-99.9,-100.00,NNE,21,18.0,22.0,-999,-99.99,,,-99.99,,2013-02-21 15:02:00,
2013-02-21 09:12:00,-999.0,-99.9,30.39,NNE,21,18.0,22.0,-999,-99.99,,,-99.99,,2013-02-21 15:12:00,
2013-02-21 09:32:00,20.0,-99.9,30.44,North,359,7.0,14.0,-999,-99.99,,,-99.99,,2013-02-21 15:32:00,
2013-02-21 10:32:00,-999.0,-99.9,-100.00,North,352,7.0,11.0,-999,-99.99,,,-99.99,,2013-02-21 16:32:00,
2013-02-21 10:42:00,-999.0,-99.9,30.45,North,352,7.0,11.0,-999,-99.99,,,-99.99,,2013-02-21 16:42:00,
2013-02-21 11:02:00,22.0,-99.9,30.45,North,5,11.0,13.0,-999,-99.99,,,-99.99,,2013-02-21 17:02:00,
2013-02-21 12:02:00,-999.0,-99.9,-100.00,NNE,21,9.0,12.0,-999,-99.99,,,-99.99,,2013-02-21 18:02:00,
2013-02-21 12:12:00,-999.0,-99.9,30.43,NNE,21,9.0,12.0,-999,-99.99,,,-99.99,,2013-02-21 18:12:00,
2013-02-21 12:32:00,23.0,-99.9,30.42,NNE,30,9.0,12.0,-999,-99.99,,,-99.99,,2013-02-21 18:32:00,
2013-02-21 13:32:00,23.0,-99.9,30.42,NE,40,11.0,13.0,-999,-99.99,,,-99.99,,2013-02-21 19:32:00,
2013-02-21 14:11:00,-999.0,-99.9,30.38,NE,37,13.0,14.0,-999,-99.99,,,-99.99,,2013-02-21 20:11:00,
2013-02-21 14:32:00,24.0,-99.9,30.38,NE,40,13.0,16.0,-999,-99.99,,,-99.99,,2013-02-21 20:32:00,
2013-02-21 15:02:00,-999.0,-99.9,-100.00,NE,38,15.0,19.0,-999,-99.99,,,-99.99,,2013-02-21 21:02:00,
2013-02-21 15:12:00,-999.0,-99.9,30.36,NE,38,15.0,19.0,-999,-99.99,,,-99.99,,2013-02-21 21:12:00,
2013-02-21 15:32:00,-999.0,-99.9,-100.00,NE,36,17.0,19.0,-999,-99.99,,,-99.99,,2013-02-21 21:32:00,
2013-02-21 15:42:00,-999.0,-99.9,30.35,NE,36,17.0,19.0,-999,-99.99,,,-99.99,,2013-02-21 21:42:00,
2013-02-21 16:32:00,-999.0,-99.9,-100.00,NNE,33,15.0,18.0,-999,-99.99,,,-99.99,,2013-02-21 22:32:00,
2013-02-21 16:42:00,-999.0,-99.9,30.37,NNE,33,15.0,18.0,-999,-99.99,,,-99.99,,2013-02-21 22:42:00,
2013-02-21 17:01:00,23.0,-99.9,30.37,NNE,33,19.0,23.0,-999,-99.99,,,-99.99,,2013-02-21 23:01:00,
2013-02-21 18:02:00,-999.0,-99.9,-100.00,NE,46,13.0,14.0,-999,-99.99,,,-99.99,,2013-02-22 00:02:00,
2013-02-21 18:11:00,-999.0,-99.9,30.37,NE,46,13.0,14.0,-999,-99.99,,,-99.99,,2013-02-22 00:11:00,
2013-02-21 18:32:00,23.0,-99.9,30.36,NNE,31,19.0,23.0,-999,-99.99,,,-99.99,,2013-02-22 00:32:00,
2013-02-21 19:01:00,23.0,-99.9,30.35,NNE,27,17.0,20.0,-999,-99.99,,,-99.99,,2013-02-22 01:01:00,
2013-02-21 19:32:00,23.0,-99.9,30.34,NNE,29,20.0,22.0,-999,-99.99,,,-99.99,,2013-02-22 01:32:00,
2013-02-21 20:02:00,-999.0,-99.9,-100.00,NNE,30,18.0,22.0,-999,-99.99,,,-99.99,,2013-02-22 02:02:00,
2013-02-21 20:11:00,-999.0,-99.9,30.34,NNE,30,18.0,22.0,-999,-99.99,,,-99.99,,2013-02-22 02:11:00,
2013-02-21 20:32:00,23.0,-99.9,30.33,NE,34,19.0,23.0,-999,-99.99,,,-99.99,,2013-02-22 02:32:00,
2013-02-21 21:02:00,23.0,-99.9,30.32,NE,36,18.0,22.0,-999,-99.99,,,-99.99,,2013-02-22 03:02:00,
2013-02-21 21:32:00,-999.0,-99.9,-100.00,NE,39,18.0,21.0,-999,-99.99,,,-99.99,,2013-02-22 03:32:00,
2013-02-21 21:42:00,-999.0,-99.9,30.30,NE,39,18.0,21.0,-999,-99.99,,,-99.99,,2013-02-22 03:42:00,
2013-02-21 22:02:00,22.0,-99.9,30.29,NNE,28,21.0,24.0,-999,-99.99,,,-99.99,,2013-02-22 04:02:00,
2013-02-21 22:32:00,-999.0,-99.9,-100.00,NNE,27,19.0,22.0,-999,-99.99,,,-99.99,,2013-02-22 04:32:00,
2013-02-21 22:42:00,-999.0,-99.9,30.28,NNE,27,19.0,22.0,-999,-99.99,,,-99.99,,2013-02-22 04:42:00,
2013-02-21 23:02:00,22.0,-99.9,30.26,NNE,25,17.0,19.0,-999,-99.99,,,-99.99,,2013-02-22 05:02:00,
2013-02-21 23:32:00,23.0,-99.9,30.25,NNE,29,18.0,21.0,-999,-99.99,,,-99.99,,2013-02-22 05:32:00,